Etusivu
METAR-TAF:

METAR-TAF

Lentoasemat :

Río Cuarto, Argentiina

Leveyspiiri: 33-07S, Pituuspiiri: 064-14W, korkeus merenpinnasta: 420 m

Tämänhetkinen sää

Tämä raportti tehtiin 12 minuuttia sitten, kello 22.00 UTC
tyyntä
Lämpötila 27°C
Kosteus 84%
Ilmanpaine 1003 hPa
Näkyvyys 10 km tai enemmän
Muutamia pilviä 3000 ft:n korkeudessa

METAR: SAOC 162200Z 00000KT 9999 FEW030 27/24 Q1003

Aika: 19:12 (22:12 UTC)


TAF: puuttuu

Säähavainnot ja -ennusteet yli 4000 lentoasemalta (METAR- ja TAF-raportit).

Käytössä olevat sääasemat on merkitty karttaan keltaisilla ja punaisilla pisteillä.

Aseta hiiri pisteen päälle nähdäksesi sääaseman nimen.

Klikkaa sitten nähdäksesi säähavainnot ja -ennusteet.

Kartan vaihtaminen: klikkaa mustalla rastilla varustettuja vihreitä pisteitä, niin voit zoomata sisään; viivalla varustettua vihreää pistettä, niin voit zoomata ulos tai vihreitä nuolia, niin pääset viereisille kartoille.


METAR-TAF: